Regional Weather Roundup
Issued by NWS

Home | Current Version | Previous Version | Text Only | Print | Product List | Glossary Off
Versions: 1 2 3 4 5 6 7 8 9 10 11 12 13 14 15 16 17 18 19 20 21 22 23 24 25 26 27 28 29 30 31 32 33 34 35 36 37 38 39 40 41 42 43 44 45 46 47 48 49 50

000
ASUS45 KSLC 230310
RWRUT

UTAH REGIONAL WEATHER ROUNDUP
NATIONAL WEATHER SERVICE SALT LAKE CITY UT
900 PM MDT FRI AUG 22 2014

UTZ001>011-023>025-230400-

NORTHERN UTAH

CITY           SKY/WX    TMP DP  RH WIND       PRES   REMARKS
HILL AFB       CLOUDY    57  52  82 NW6       30.04R
LOGAN          LGT RAIN  58  52  80 SE13G24   29.99F
OGDEN          CLOUDY    58  55  90 NW3       30.02R
PROVO AIRPORT  TSTM      61  54  77 NW13      30.08R
SALT LAKE CITY CLOUDY    59  55  87 SE8       29.99F
VERNAL         LGT RAIN  62  55  77 NE5       30.01R
WENDOVER       MOCLDY    64  54  68 N6        29.97R
HEBER CITY     CLOUDY    55  50  82 NE18G24   30.07R
WEST JORDAN    CLOUDY    61  59  94 SE3       30.04F

$$

UTZ012>022-026-027-230400-

SOUTHERN UTAH

CITY           SKY/WX    TMP DP  RH WIND       PRES   REMARKS
BRYCE CANYON   CLEAR     57  46  66 S7        30.17R
CEDAR CITY     CLEAR     69  45  41 S9        30.03R
MILFORD        MOCLDY    68  49  50 N28G39    29.99R
MOAB/CYNLANDS  CLOUDY    74  48  39 SE12      29.92R
PRICE          MOCLDY    64  54  69 W7        30.01S
ST GEORGE      CLOUDY    84  52  32 SW9       29.89R

$$

REGIONAL REPORTS     COLORADO/ARIZONA

CITY           SKY/WX    TMP DP  RH WIND       PRES   REMARKS
CRAIG, CO      CLOUDY    57  52  83 E6        30.08R
GRAND JUNCTION MOCLDY    63  54  72 SE12      29.99F
RIFLE          MOCLDY    62  55  77 NE3       30.05R
MONTROSE       MOCLDY    62  55  77 SE8       30.11S
CORTEZ         CLOUDY    58  54  86 CALM      30.15R
PAGE, AZ       MOCLDY    80  49  33 S3        29.96R
GRAND CANYON     N/A    N/A N/A N/A MISG        N/A
KINGMAN        CLEAR     76  52  43 SW9       30.00R
FLAGSTAFF      CLEAR     57  48  72 W6        30.24R

$$

REGIONAL REPORTS    NEVADA/IDAHO/WYOMING

CITY           SKY/WX    TMP DP  RH WIND       PRES   REMARKS
LAS VEGAS, NV  CLEAR     91  44  19 S16G24    29.78R
ELY            MOCLDY    57  51  80 S8        30.01S
ELKO           MOCLDY    66  31  27 NE8       29.98R
POCATELLO, ID  PTCLDY    53  52  96 N7        30.04R
BURLEY         CLOUDY    57  49  74 NE12G18   30.01R
EVANSTON, WY   LGT RAIN  48  47  96 S7        30.17R
ROCK SPRINGS   LGT RAIN  53  47  79 NW14      30.14R

$$


USA.gov is the U.S. government's official web portal to all federal, state and local government web resources and services.